Regional Weather Roundup
Issued by NWS

Home | Current Version | Previous Version | Graphics & Text | Print | Product List | Glossary On
Versions: 1 2 3 4 5 6 7 8 9 10 11 12 13 14 15 16 17 18 19 20 21 22 23 24 25 26 27 28 29 30 31 32 33 34 35 36 37 38 39 40 41 42 43 44 45 46 47 48 49 50
000
ASUS43 KIND 031759
RWRIN

WEATHER ROUNDUP FOR INDIANA
NATIONAL WEATHER SERVICE INDIANAPOLIS IN
100 PM EST TUE MAR 03 2015

NOTE: "FAIR" INDICATES FEW OR NO CLOUDS BELOW 12,000 FEET WITH NO
SIGNIFICANT WEATHER AND/OR OBSTRUCTIONS TO VISIBILITY.

* - STATION DOES NOT REPORT WEATHER SUCH AS PRECIPITATION OR FOG.

+ - STATION NOT QUALITY CONTROLLED BY THE NATIONAL WEATHER SERVICE.
    USE DATA WITH CAUTION...ESPECIALLY DEWPOINT AND RELATIVE
    HUMIDITY OBSERVATIONS.

INZ001>003-010>013-019-020-031900-
NORTHWEST INDIANA

CITY           SKY/WX    TMP DP  RH WIND       PRES   REMARKS
GARY /AIRPORT/ CLOUDY    34  30  86 S16       29.67F FOG     WCI  23
KNOX *+          N/A     32  27  80 S9        29.71S WCI  24
MONTICELLO +   MIX PCPN  32  32  99 S10G16    29.74F WCI  24
6HR MIN TEMP:  26; 6HR MAX TEMP:  32; 6HR PCP:  0.02;

VALPARAISO     NOT AVBL

$$

LMZ046-743>745-031900-
SOUTHERN LAKE MICHIGAN

STATION/POSITION TIME  TEMP WIND        PRES
                       AIR  DIR/SP/G
                 (UTC) (F)  (DEG/KT/KT) (MB)
MICHIGAN CITY    1700   31  160/ 13/ 19   N/A

$$

INZ004-005-014>016-021>024-031900-
NORTH CENTRAL INDIANA

CITY           SKY/WX    TMP DP  RH WIND       PRES   REMARKS
ELKHART        DRIZZLE   32  28  86 S9G16     29.71F WCI  24
GOSHEN         LGT SNOW  32  29  88 S18       29.72F VSB 1   WCI  20
6HR MIN TEMP:  24; 6HR MAX TEMP:  32; 6HR PCP:  0.02;

SOUTH BEND     MIX PCPN  33  29  85 S18       29.69F FOG     WCI  22
6HR MIN TEMP:  25; 6HR MAX TEMP:  33; 6HR PCP:  0.02;

WARSAW +       DRIZZLE   32  30  93 S12       29.72F WCI  23

$$

INZ006>009-017-018-025>027-031900-
NORTHEAST INDIANA

CITY           SKY/WX    TMP DP  RH WIND       PRES   REMARKS
ANGOLA *+      CLOUDY    27  25  93 S14       29.72F WCI  15
FORT WAYNE     FRZ DRZL  31  29  92 S20       29.75F FOG     WCI  19
6HR MIN TEMP:  25; 6HR MAX TEMP:  31; 6HR PCP:  0.04;


$$

INZ028-029-035-036-043>045-051>053-031900-
WEST CENTRAL INDIANA

CITY           SKY/WX    TMP DP  RH WIND       PRES   REMARKS
CRAWFORDSVL +  CLOUDY    34  31  89 S15G21    29.76F FOG     WCI  25
6HR MIN TEMP:  26; 6HR MAX TEMP:  34; 6HR PCP:  0.06;

GREENCASTLE +  CLOUDY    37  34  87 S15G33    29.79F FOG
LAFAYETTE      CLOUDY    35  33  92 SW9       29.76F FOG     WCI  28
6HR MIN TEMP:  27; 6HR MAX TEMP:  35; 6HR PCP:  0.01;

TERRE HAUTE    CLOUDY    37  35  92 S14       29.80F FOG
6HR MIN TEMP:  30; 6HR MAX TEMP:  37; 6HR PCP:  0.11;


$$

INZ030>032-037>040-046>048-054>057-064-065-031900-
CENTRAL INDIANA

CITY           SKY/WX    TMP DP  RH WIND       PRES   REMARKS
CP ATTERBURY + RAIN      37  34  87 S10       29.83F
FRANKFORT +    CLOUDY    35  35 100 S16G22    29.76F WCI  25
6HR MIN TEMP:  27; 6HR MAX TEMP:  35; 6HR PCP:  0.04;

GREENWOOD *+   CLOUDY    34  30  86 S8        29.81F WCI  27
INDIANAPOLIS   DRIZZLE   35  33  92 S13       29.78F FOG     WCI  26
6HR MIN TEMP:  28; 6HR MAX TEMP:  35; 6HR PCP:  0.14;

-EAGLE CREEK   MIX PCPN  33  32  96 S9        29.78F FOG     WCI  25
6HR MIN TEMP:  28; 6HR MAX TEMP:  33; 6HR PCP:  0.25;

KOKOMO *+      CLOUDY    34  30  86 S14G21    29.75F WCI  24
6HR MIN TEMP:  27; 6HR MAX TEMP:  34; 6HR PCP:  0.06;

MT COMFORT *+  CLOUDY    34 N/A N/A S14       29.79F WCI  24
SHELBYVILLE    LGT RAIN  36  32  85 S14       29.81F FOG
6HR MIN TEMP:  31; 6HR MAX TEMP:  36; 6HR PCP:  0.08;

ZIONSVILLE +   DRIZZLE   34  31  88 S15G22    29.76F WCI  24
6HR MIN TEMP:  28; 6HR MAX TEMP:  34; 6HR PCP:  0.12;


$$

INZ033-034-041-042-049-050-058-059-031900-
EAST CENTRAL INDIANA

CITY           SKY/WX    TMP DP  RH WIND       PRES   REMARKS
MUNCIE         LGT SNOW  34  32  92 S12G22    29.76F FOG     WCI  25
6HR MIN TEMP:  28; 6HR MAX TEMP:  34; 6HR PCP:  0.15;


$$

INZ060-061-067>069-081>083-085>088-031900-
SOUTHWEST INDIANA

CITY           SKY/WX    TMP DP  RH WIND       PRES   REMARKS
EVANSVILLE     LGT RAIN  46  44  93 SW15      29.90F FOG
6HR MIN TEMP:  35; 6HR MAX TEMP:  47; 6HR PCP:  0.05;

HUNTINGBURG *+ CLOUDY    45  41  87 S16G22    29.89F VSB 1
6HR MIN TEMP:  34; 6HR MAX TEMP:  45;


$$

INZ062-063-066-070>080-084-089>092-031900-
SOUTH CENTRAL AND SOUTHEAST INDIANA

CITY           SKY/WX    TMP DP  RH WIND       PRES   REMARKS
BLOOMINGTON    LGT RAIN  42  41  96 SW10      29.82F FOG
6HR MIN TEMP:  30; 6HR MAX TEMP:  42; 6HR PCP:  0.21;

SEYMOUR +      LGT RAIN  39  39 100 S7        29.85F

$$



USA.gov is the U.S. government's official web portal to all federal, state and local government web resources and services.